Regional Weather Roundup
Issued by NWS

Home | Current Version | Previous Version | Graphics & Text | Print | Product List | Glossary Off
Versions: 1 2 3 4 5 6 7 8 9 10 11 12 13 14 15 16 17 18 19 20 21 22 23 24 25 26 27 28 29 30 31 32 33 34 35 36 37 38 39 40 41 42 43 44 45 46 47 48 49 50

000
ASUS43 KTOP 210508
RWRKS

WEATHER ROUNDUP FOR KANSAS
NATIONAL WEATHER SERVICE GOODLAND KS
1200 AM CDT MON APR 21 2014

NOTE:  "FAIR" INDICATES FEW OR NO CLOUDS BELOW 12,000 FEET WITH NO
SIGNIFICANT WEATHER AND/OR OBSTRUCTIONS TO VISIBILITY.

KSZ001>006-013>018-027>032-041>047-210600-
NORTHWEST KANSAS

CITY           SKY/WX    TMP DP  RH WIND       PRES   REMARKS
GOODLAND       PTCLDY    51  45  79 CALM      30.00S
HAYS           CLOUDY    57  54  88 CALM      29.99F
HILL CITY      CLOUDY    60  56  86 S5        29.97F
RUSSELL        CLOUDY    59  54  83 NW12      29.97R
$$

KSZ061>065-074>080-084>089-210600-
SOUTHWEST KANSAS

CITY           SKY/WX    TMP DP  RH WIND       PRES   REMARKS
DODGE CITY     MOCLDY    52  48  86 SE12      29.99R
ELKHART          N/A     53  45  74 S5          N/A
GARDEN CITY    CLOUDY    55  48  77 S9        29.98S
GREAT BEND     CLOUDY    61  52  72 S7        29.97R
LIBERAL        PTCLDY    52  45  76 S8        30.00S
PRATT          MOCLDY    59  52  77 S10       30.00R
$$

KSZ066>073-081>083-090>101-210600-
SOUTHEAST KANSAS

CITY           SKY/WX    TMP DP  RH WIND       PRES   REMARKS
CHANUTE        CLOUDY    63  55  75 S3        30.02S
COFFEYVILLE    CLOUDY    65  56  72 S10       30.02S
HUTCHINSON     MOCLDY    61  53  75 S10       29.98R
MEDICINE LODGE   N/A     62  55  77 S13       29.98R
NEWTON         PTCLDY    61  50  67 S9        30.02S
PARSONS        CLOUDY    66  55  67 S6        30.03S
WICHITA INTL   MOCLDY    61  54  77 S12       29.97F
WICHITA JABRA  PTCLDY    61  54  77 S15       29.98F
WICHITA MCCONL MOCLDY    62  60  94 SE15      29.99F
WINFIELD       PTCLDY    62  57  83 S12       30.02F
$$

KSZ007>012-019>026-033>040-048>060-102>105-210600-
NORTHEAST KANSAS

CITY           SKY/WX    TMP DP  RH WIND       PRES   REMARKS
CONCORDIA      CLOUDY    61  57  87 S8        29.97F
EMPORIA        CLOUDY    63  54  72 S9        30.00S
LAWRENCE       CLOUDY    64  56  75 SE5       30.01F
MANHATTAN      CLOUDY    63  57  81 SW5       29.98S
OLATHE IND     CLOUDY    63  54  72 S6        30.02F
OLATHE EXE     CLOUDY    63  54  72 S3        30.01F
SALINA         CLOUDY    62  55  77 SE7       29.98R
TOPEKA BILLARD CLOUDY    65  58  78 SE5       29.99F
TOPEKA FORBES  CLOUDY    64  54  69 SE6       29.99F
$$



USA.gov is the U.S. government's official web portal to all federal, state and local government web resources and services.